Location: Ch�tillon
(48.8024°N, 2.2935°E)
Time: 00:26:23
(UTC+00:00)

Okean-O - Pass Details

Date: 16 October 2021
Orbit: 639 x 640 km, 98.2° (Epoch: 06 December)

Event Time Altitude Azimuth Distance (km) Brightness Sun altitude
Exits shadow 19:45:19 17° 211° (SSW) 1,632 4.8 -27.9°
Maximum altitude 19:48:05 31° 264° (W) 1,125 4.3 -28.3°
Drops below altitude 10° 19:52:03 10° 327° (NNW) 2,044 5.8 -28.9°
Sets 19:54:29 0° 338° (NNW) 2,958 6.6 -29.3°
